CW6144 Weather Reports


Display with metric or nautical units.
time (UTC)temp
F
wind
direction
speed
MPH
gust
MPH
rain 1hr
in
rain 24hr
in
rain mn
in
humidity
%
barometer
mb
20260831231003 92 180 3.0 8.0 0.00 0.00 0.00 40 1018.9
20260831230504 92 226 1.0 7.0 0.00 0.00 0.00 39 1018.9
20260831230007 93 130 2.0 7.0 0.00 0.00 0.00 38 1018.9
20260831225503 93 178 4.0 7.0 0.00 0.00 0.00 39 1018.9
20260831225005 93 138 3.0 8.0 0.00 0.00 0.00 38 1018.9
20260831224514 93 70 3.0 8.0 0.00 0.00 0.00 39 1018.8
20260831224007 93 41 1.0 7.0 0.00 0.00 0.00 38 1018.9
20260831223506 93 74 3.0 7.0 0.00 0.00 0.00 39 1018.8
20260831223029 92 123 2.0 12.0 0.00 0.00 0.00 39 1018.8
20260831222512 92 113 6.0 12.0 0.00 0.00 0.00 39 1018.9
20260831222012 93 138 6.0 9.0 0.00 0.00 0.00 39 1019.0
20260831221524 93 101 5.0 9.0 0.00 0.00 0.00 38 1019.0
20260831221012 93 65 2.0 7.0 0.00 0.00 0.00 38 1019.0
20260831220512 93 82 3.0 10.0 0.00 0.00 0.00 38 1019.0
20260831220027 93 137 4.0 10.0 0.00 0.00 0.00 38 1019.0
20260831215506 94 10 1.0 10.0 0.00 0.00 0.00 37 1019.0
20260831215004 93 115 5.0 10.0 0.00 0.00 0.00 36 1019.0
20260831214510 94 122 2.0 10.0 0.00 0.00 0.00 36 1019.0
20260831214004 94 63 3.0 7.0 0.00 0.00 0.00 37 1019.0
20260831213508 93 53 2.0 8.0 0.00 0.00 0.00 1018.9
20260831213021 93 157 4.0 8.0 0.00 0.00 0.00 38 1019.0
20260831212509 93 155 1.0 9.0 0.00 0.00 0.00 38 1018.9
20260831212012 93 49 4.0 9.0 0.00 0.00 0.00 37 1019.0
20260831211525 93 65 3.0 9.0 0.00 0.00 0.00 37 1019.0
20260831211012 93 169 1.0 11.0 0.00 0.00 0.00 37 1019.1
20260831210513 93 92 2.0 11.0 0.00 0.00 0.00 38 1019.2
20260831210027 93 111 1.0 4.0 0.00 0.00 0.00 38 1019.1
20260831205519 93 93 1.0 10.0 0.00 0.00 0.00 38 1019.2
20260831205017 94 119 2.0 10.0 0.00 0.00 0.00 1019.3
20260831204509 95 169 4.0 8.0 0.00 0.00 0.00 1019.3
20260831204004 95 178 2.0 10.0 0.00 0.00 0.00 36 1019.3
20260831203504 95 165 3.0 9.0 0.00 0.00 0.00 36 1019.3
20260831203014 95 144 3.0 8.0 0.00 0.00 0.00 36 1019.5
20260831202507 94 182 2.0 10.0 0.00 0.00 0.00 39 1019.4
20260831202007 93 179 5.0 10.0 0.00 0.00 0.00 39 1019.6
20260831201532 93 262 2.0 9.0 0.00 0.00 0.00 39 1019.7
20260831201011 93 217 3.0 9.0 0.00 0.00 0.00 40 1019.8
20260831200509 92 119 3.0 9.0 0.00 0.00 0.00 40 1019.8
20260831200025 92 175 3.0 7.0 0.00 0.00 0.00 41 1020.0
20260831195513 92 238 1.0 10.0 0.00 0.00 0.00 41 1020.1
20260831195014 92 53 2.0 10.0 0.00 0.00 0.00 42 1020.0
20260831194555 91 186 5.0 9.0 0.00 0.00 0.00 43 1020.1
20260831194016 91 136 3.0 9.0 0.00 0.00 0.00 42 1020.2
20260831193515 91 196 2.0 5.0 0.00 0.00 0.00 43 1020.2
20260831193011 91 130 1.0 5.0 0.00 0.00 0.00 43 1020.3
20260831192506 90 134 2.0 9.0 0.00 0.00 0.00 43 1020.3
20260831192006 91 106 2.0 9.0 0.00 0.00 0.00 42 1020.3
20260831191518 92 81 3.0 8.0 0.00 0.00 0.00 42 1020.3
20260831191008 92 320 1.0 9.0 0.00 0.00 0.00 41 1020.4
20260831190508 92 183 3.0 9.0 0.00 0.00 0.00 41 1020.4
20260831190032 92 196 3.0 6.0 0.00 0.00 0.00 41 1020.5
20260831185512 92 134 1.0 7.0 0.00 0.00 0.00 43 1020.5
20260831185014 92 105 1.0 7.0 0.00 0.00 0.00 41 1020.6
20260831184531 93 130 2.0 9.0 0.00 0.00 0.00 41 1020.5
20260831184017 93 156 4.0 9.0 0.00 0.00 0.00 40 1020.6
20260831183516 92 81 4.0 9.0 0.00 0.00 0.00 41 1020.7
20260831183029 94 70 6.0 9.0 0.00 0.00 0.00 39 1020.8
20260831182517 95 94 2.0 7.0 0.00 0.00 0.00 39 1020.8
20260831182017 95 190 4.0 11.0 0.00 0.00 0.00 40 1020.9
20260831181516 94 119 4.0 11.0 0.00 0.00 0.00 39 1020.9
20260831181009 94 190 3.0 9.0 0.00 0.00 0.00 43 1020.9
20260831180508 93 198 4.0 9.0 0.00 0.00 0.00 42 1021.1
20260831180022 94 173 5.0 9.0 0.00 0.00 0.00 42 1021.1
20260831175509 94 193 4.0 11.0 0.00 0.00 0.00 43 1021.2
20260831175010 94 135 6.0 11.0 0.00 0.00 0.00 43 1021.2
20260831174535 93 223 4.0 10.0 0.00 0.00 0.00 44 1021.3
20260831174014 93 215 4.0 10.0 0.00 0.00 0.00 44 1021.4
20260831173515 92 111 5.0 10.0 0.00 0.00 0.00 45 1021.5
20260831173029 92 161 3.0 9.0 0.00 0.00 0.00 46 1021.4
20260831172517 91 210 4.0 11.0 0.00 0.00 0.00 47 1021.6
20260831172018 91 293 4.0 10.0 0.00 0.00 0.00 46 1021.7
20260831171535 91 115 4.0 10.0 0.00 0.00 0.00 47 1021.6
20260831171021 90 180 5.0 10.0 0.00 0.00 0.00 48 1021.7
20260831170519 89 128 1.0 7.0 0.00 0.00 0.00 50 1021.7
20260831170016 89 261 3.0 8.0 0.00 0.00 0.00 49 1021.7
20260831165507 89 192 3.0 9.0 0.00 0.00 0.00 48 1021.7
20260831165009 90 170 5.0 9.0 0.00 0.00 0.00 47 1021.7
20260831164526 90 138 4.0 10.0 0.00 0.00 0.00 49 1021.7
20260831164014 90 189 4.0 10.0 0.00 0.00 0.00 49 1021.8
20260831163515 89 140 5.0 8.0 0.00 0.00 0.00 49 1021.8
20260831163030 89 182 5.0 8.0 0.00 0.00 0.00 49 1021.9
20260831162514 89 222 4.0 8.0 0.00 0.00 0.00 50 1021.8
20260831162016 89 207 4.0 9.0 0.00 0.00 0.00 51 1021.9
20260831161533 88 175 5.0 9.0 0.00 0.00 0.00 51 1021.9
20260831161014 88 197 2.0 9.0 0.00 0.00 0.00 52 1021.8
20260831160506 87 229 5.0 9.0 0.00 0.00 0.00 52 1021.9
20260831160018 87 206 4.0 9.0 0.00 0.00 0.00 54 1021.9
20260831155507 87 209 5.0 9.0 0.00 0.00 0.00 52 1021.9
20260831155024 87 231 5.0 9.0 0.00 0.00 0.00 53 1021.9
20260831154552 86 175 5.0 9.0 0.00 0.00 0.00 53 1021.9
20260831154007 86 191 5.0 8.0 0.00 0.00 0.00 54 1021.8
20260831153503 85 172 4.0 10.0 0.00 0.00 0.00 55 1021.7
20260831153006 84 165 3.0 10.0 0.00 0.00 0.00 58 1021.7
20260831152503 83 176 5.0 9.0 0.00 0.00 0.00 57 1021.7
20260831152004 83 208 4.0 10.0 0.00 0.00 0.00 57 1021.7
20260831151509 83 175 5.0 10.0 0.00 0.00 0.00 57 1021.7
20260831151005 83 168 4.0 10.0 0.00 0.00 0.00 57 1021.7
20260831150504 83 241 3.0 10.0 0.00 0.00 0.00 56 1021.7
20260831150015 83 163 4.0 9.0 0.00 0.00 0.00 57 1021.6
20260831145509 83 182 3.0 11.0 0.00 0.00 0.00 58 1021.5
20260831145010 82 165 6.0 11.0 0.00 0.00 0.00 57 1021.5
20260831144519 82 190 4.0 9.0 0.00 0.00 0.00 58 1021.5
20260831144011 82 208 5.0 10.0 0.00 0.00 0.00 58 1021.5
20260831143512 81 190 4.0 10.0 0.00 0.00 0.00 59 1021.4
20260831143027 81 205 5.0 10.0 0.00 0.00 0.00 59 1021.4
20260831142513 81 227 5.0 10.0 0.00 0.00 0.00 60 1021.4
20260831142003 80 208 6.0 12.0 0.00 0.00 0.00 61 1021.4
20260831141507 80 160 6.0 13.0 0.00 0.00 0.00 61 1021.5
20260831141002 79 173 5.0 13.0 0.00 0.00 0.00 61 1021.5
20260831140504 79 213 6.0 12.0 0.00 0.00 0.00 62 1021.4
20260831140011 79 148 6.0 14.0 0.00 0.00 0.00 62 1021.4
20260831135507 79 221 5.0 14.0 0.00 0.00 0.00 63 1021.3
20260831135009 78 167 5.0 12.0 0.00 0.00 0.00 63 1021.2
20260831134514 78 234 6.0 13.0 0.00 0.00 0.00 63 1021.2
20260831134011 78 223 5.0 14.0 0.00 0.00 0.00 64 1021.1
20260831133510 77 236 5.0 14.0 0.00 0.00 0.00 65 1021.1
20260831133023 77 183 5.0 15.0 0.00 0.00 0.00 65 1021.1
20260831132514 77 189 5.0 15.0 0.00 0.00 0.00 66 1021.1
20260831132014 77 180 6.0 12.0 0.00 0.00 0.00 66 1021.1
20260831131529 76 184 4.0 12.0 0.00 0.00 0.00 67 1020.9
20260831131018 76 148 4.0 9.0 0.00 0.00 0.00 67 1020.9
20260831130503 76 232 4.0 9.0 0.00 0.00 0.00 67 1020.9
20260831130012 76 229 4.0 9.0 0.00 0.00 0.00 68 1020.8
20260831125504 76 179 5.0 9.0 0.00 0.00 0.00 68 1020.8
20260831125007 75 201 5.0 12.0 0.00 0.00 0.00 68 1020.7
20260831124515 75 173 4.0 12.0 0.00 0.00 0.00 68 1020.7
20260831124019 75 180 5.0 9.0 0.00 0.00 0.00 69 1020.5
20260831123511 75 184 4.0 9.0 0.00 0.00 0.00 69 1020.5
20260831123019 75 181 4.0 10.0 0.00 0.00 0.00 69 1020.4
20260831122515 74 153 4.0 11.0 0.00 0.00 0.00 70 1020.3
20260831122016 74 192 6.0 11.0 0.00 0.00 0.00 70 1020.2
20260831121540 74 181 5.0 9.0 0.00 0.00 0.00 70 1020.1
20260831121014 74 221 5.0 9.0 0.00 0.00 0.00 71 1020.0
20260831120516 74 211 4.0 9.0 0.00 0.00 0.00 71 1019.9
20260831120036 73 166 3.0 9.0 0.00 0.00 0.00 71 1019.8
20260831115503 73 165 4.0 7.0 0.00 0.00 0.00 71 1019.8
20260831115007 73 162 3.0 8.0 0.00 0.00 0.00 71 1019.8
20260831114516 73 220 4.0 9.0 0.00 0.00 0.00 71 1019.7
20260831114008 73 181 4.0 9.0 0.00 0.00 0.00 71 1019.7
20260831113509 73 216 3.0 8.0 0.00 0.00 0.00 71 1019.7
20260831113019 73 207 4.0 10.0 0.00 0.00 0.00 71 1019.7
20260831112513 73 221 4.0 10.0 0.00 0.00 0.00 71 1019.6
20260831112010 73 187 4.0 9.0 0.00 0.00 0.00 70 1019.6
20260831111525 73 221 4.0 8.0 0.00 0.00 0.00 70 1019.6
20260831111014 73 216 4.0 8.0 0.00 0.00 0.00 70 1019.6
20260831110516 73 205 4.0 8.0 0.00 0.00 0.00 70 1019.7
20260831110030 73 229 4.0 8.0 0.00 0.00 0.00 70 1019.5
20260831105515 73 214 3.0 8.0 0.00 0.00 0.00 70 1019.6
20260831105016 73 221 5.0 8.0 0.00 0.00 0.00 70 1019.6
20260831104537 73 185 3.0 9.0 0.00 0.00 0.00 70 1019.6
20260831104005 73 190 4.0 9.0 0.00 0.00 0.00 70 1019.6
20260831103505 73 163 3.0 6.0 0.00 0.00 0.00 70 1019.6
20260831103019 73 223 3.0 7.0 0.00 0.00 0.00 70 1019.6
20260831102511 73 227 3.0 7.0 0.00 0.00 0.00 70 1019.5
20260831102011 73 229 3.0 7.0 0.00 0.00 0.00 70 1019.5
20260831101523 73 225 3.0 7.0 0.00 0.00 0.00 70 1019.5
20260831101013 73 224 3.0 7.0 0.00 0.00 0.00 70 1019.4
20260831100514 73 180 4.0 7.0 0.00 0.00 0.00 70 1019.3
20260831100037 73 203 2.0 8.0 0.00 0.00 0.00 70 1019.3
20260831095507 73 192 3.0 9.0 0.00 0.00 0.00 69 1019.3
20260831095002 73 222 3.0 9.0 0.00 0.00 0.00 69 1019.2
20260831094508 73 180 3.0 6.0 0.00 0.00 0.00 69 1019.2
20260831094006 73 159 4.0 8.0 0.00 0.00 0.00 69 1019.2
20260831093504 73 168 4.0 8.0 0.00 0.00 0.00 69 1019.2
20260831093019 73 218 3.0 8.0 0.00 0.00 0.00 69 1019.2
20260831092509 73 176 3.0 8.0 0.00 0.00 0.00 69 1019.3
20260831092011 73 203 4.0 8.0 0.00 0.00 0.00 68 1019.2
20260831091518 73 182 3.0 7.0 0.00 0.00 0.00 68 1019.2
20260831091010 74 204 3.0 10.0 0.00 0.00 0.00 68 1019.2
20260831090513 74 182 3.0 10.0 0.00 0.00 0.00 67 1019.2
20260831090027 74 229 4.0 8.0 0.00 0.00 0.00 67 1019.1
20260831085513 74 167 4.0 9.0 0.00 0.00 0.00 66 1019.2
20260831085015 74 217 3.0 10.0 0.00 0.00 0.00 66 1019.2
20260831084527 74 223 6.0 10.0 0.00 0.00 0.00 66 1019.2
20260831084003 74 164 4.0 12.0 0.00 0.00 0.00 65 1019.1
20260831083502 74 183 4.0 12.0 0.00 0.00 0.00 65 1019.0
20260831083011 75 206 4.0 10.0 0.00 0.00 0.00 65 1019.1
20260831082506 75 180 5.0 10.0 0.00 0.00 0.00 64 1019.1
20260831082008 75 194 5.0 10.0 0.00 0.00 0.00 64 1019.2
20260831081521 75 198 4.0 12.0 0.00 0.00 0.00 63 1019.1
20260831081010 75 154 3.0 12.0 0.00 0.00 0.00 63 1019.1
20260831080511 75 186 5.0 12.0 0.00 0.00 0.00 62 1019.1
20260831080026 76 221 4.0 11.0 0.00 0.00 0.00 62 1019.1
20260831075518 76 228 5.0 15.0 0.00 0.00 0.00 61 1019.0
20260831075012 76 150 7.0 15.0 0.00 0.00 0.00 61 1019.1
20260831074530 76 214 6.0 12.0 0.00 0.00 0.00 61 1019.0
20260831074014 76 205 5.0 11.0 0.00 0.00 0.00 61 1019.0
20260831073520 76 181 4.0 11.0 0.00 0.00 0.00 60 1018.9
20260831073037 76 192 6.0 12.0 0.00 0.00 0.00 60 1019.1
20260831072504 76 209 6.0 13.0 0.00 0.00 0.00 60 1019.1
20260831072003 76 201 5.0 13.0 0.00 0.00 0.00 60 1019.1
20260831071519 76 162 6.0 13.0 0.00 0.00 0.00 60 1019.2
20260831071014 76 201 5.0 13.0 0.00 0.00 0.00 61 1019.2
20260831070506 76 214 5.0 11.0 0.00 0.00 0.00 61 1019.2
20260831070024 76 202 4.0 12.0 0.00 0.00 0.00 61 1019.3
20260831065513 76 188 5.0 12.0 0.00 0.00 0.00 61 1019.4
20260831065019 76 248 4.0 11.0 0.00 0.00 0.00 61 1019.5
20260831064526 76 192 5.0 11.0 0.00 0.00 0.00 61 1019.4
20260831064012 76 133 4.0 11.0 0.00 0.00 0.00 61 1019.5
20260831063514 76 182 3.0 10.0 0.00 0.00 0.00 61 1019.6
20260831063031 76 155 5.0 12.0 0.00 0.00 0.00 61 1019.6
20260831062517 75 174 6.0 12.0 0.00 0.00 0.00 61 1019.6
20260831062017 75 192 3.0 11.0 0.00 0.00 0.00 61 1019.6
20260831061513 75 169 5.0 11.0 0.00 0.00 0.00 61 1019.6
20260831061013 75 163 4.0 9.0 0.00 0.00 0.00 61 1019.6
20260831060510 75 216 3.0 7.0 0.00 0.00 0.00 61 1019.7
20260831060019 75 189 3.0 7.0 0.00 0.00 0.00 61 1019.6
20260831055508 75 157 2.0 7.0 0.00 0.00 0.00 61 1019.6
20260831055012 75 205 2.0 10.0 0.00 0.00 0.00 61 1019.6
20260831054524 75 178 3.0 10.0 0.00 0.00 0.00 61 1019.6
20260831054014 75 144 2.0 7.0 0.00 0.00 0.00 61 1019.6
20260831053514 75 136 4.0 8.0 0.00 0.00 0.00 61 1019.5
20260831053035 76 194 3.0 8.0 0.00 0.00 0.00 61 1019.5
20260831052516 76 175 4.0 7.0 0.00 0.00 0.00 60 1019.5
20260831052016 76 165 2.0 8.0 0.00 0.00 0.00 60 1019.4
20260831051532 76 198 4.0 8.0 0.00 0.00 0.00 60 1019.3
20260831051016 76 147 3.0 7.0 0.00 0.00 0.00 60 1019.3
20260831050516 76 137 3.0 5.0 0.00 0.00 0.00 60 1019.4
20260831050017 76 208 3.0 8.0 0.00 0.00 0.00 59 1019.4
20260831045508 76 163 2.0 8.0 0.00 0.00 0.00 59 1019.4
20260831045010 76 221 3.0 8.0 0.00 0.00 0.00 59 1019.4
20260831044523 76 148 3.0 8.0 0.00 0.00 0.00 59 1019.5
20260831044013 76 159 2.0 7.0 0.00 0.00 0.00 59 1019.5
20260831043502 76 196 2.0 7.0 0.00 0.00 0.00 58 1019.5
20260831043003 76 219 2.0 9.0 0.00 0.00 0.00 58 1019.5
20260831042504 76 232 3.0 9.0 0.00 0.00 0.00 57 1019.4
20260831042004 77 207 2.0 8.0 0.00 0.00 0.00 57 1019.4
20260831041504 77 153 3.0 8.0 0.00 0.00 0.00 56 1019.4
20260831041004 77 190 3.0 7.0 0.00 0.00 0.00 57 1019.3
20260831040505 77 169 2.0 8.0 0.00 0.00 0.00 57 1019.3
20260831040009 77 189 3.0 8.0 0.00 0.00 0.00 57 1019.3
20260831035504 77 217 2.0 6.0 0.00 0.00 0.00 57 1019.2
20260831035003 77 196 2.0 6.0 0.00 0.00 0.00 57 1019.2
20260831034504 77 155 2.0 6.0 0.00 0.00 0.00 57 1019.2
20260831034003 77 201 3.0 8.0 0.00 0.00 0.00 57 1019.3
20260831033506 77 152 3.0 8.0 0.00 0.00 0.00 57 1019.3
20260831033005 77 215 3.0 8.0 0.00 0.00 0.00 57 1019.2
20260831032504 77 204 2.0 7.0 0.00 0.00 0.00 57 1019.2
20260831032004 77 136 3.0 7.0 0.00 0.00 0.00 58 1019.2
20260831031508 77 238 2.0 8.0 0.00 0.00 0.00 58 1019.1
20260831031003 77 165 3.0 8.0 0.00 0.00 0.00 58 1019.1
20260831030503 77 169 2.0 6.0 0.00 0.00 0.00 59 1019.1
20260831030005 77 128 0.0 6.0 0.00 0.00 0.00 59 1019.1
20260831025505 77 116 2.0 6.0 0.00 0.00 0.00 59 1019.1
20260831025004 77 175 2.0 7.0 0.00 0.00 0.00 60 1019.1
20260831024519 77 188 3.0 7.0 0.00 0.00 0.00 60 1019.1
20260831024006 77 188 2.0 6.0 0.00 0.00 0.00 60 1019.0
20260831023504 77 198 2.0 8.0 0.00 0.00 0.00 60 1019.0
20260831023005 77 222 4.0 8.0 0.00 0.00 0.00 60 1019.0
20260831022504 77 189 2.0 5.0 0.00 0.00 0.00 61 1019.1
20260831022004 77 203 2.0 6.0 0.00 0.00 0.00 61 1019.1
20260831021504 77 216 2.0 6.0 0.00 0.00 0.00 61 1019.0
20260831021004 77 214 2.0 3.0 0.00 0.00 0.00 61 1018.9
20260831020503 78 225 0.0 3.0 0.00 0.00 0.00 61 1018.9
20260831020008 78 192 1.0 3.0 0.00 0.00 0.00 61 1018.7
20260831015504 78 129 1.0 3.0 0.00 0.00 0.00 61 1018.7
20260831015004 78 243 1.0 2.0 0.00 0.00 0.00 61 1018.7
20260831014508 78 194 0.0 3.0 0.00 0.00 0.00 61 1018.6
20260831014003 79 189 1.0 3.0 0.00 0.00 0.00 60 1018.6
20260831013503 79 209 1.0 3.0 0.00 0.00 0.00 61 1018.5
20260831013020 79 212 1.0 4.0 0.00 0.00 0.00 60 1018.4
20260831012503 80 222 1.0 4.0 0.00 0.00 0.00 60 1018.5
20260831012002 80 205 1.0 3.0 0.00 0.00 0.00 60 1018.4
20260831011517 80 221 1.0 4.0 0.00 0.00 0.00 59 1018.4
20260831011003 81 232 1.0 4.0 0.00 0.00 0.00 59 1018.4
20260831010503 81 138 1.0 3.0 0.00 0.00 0.00 59 1018.2
20260831010013 81 198 1.0 5.0 0.00 0.00 0.00 58 1018.1
20260831005505 82 136 1.0 5.0 0.00 0.00 0.00 58 1018.2
20260831005006 82 194 2.0 5.0 0.00 0.00 0.00 58 1018.2
20260831004513 82 234 2.0 5.0 0.00 0.00 0.00 57 1018.3
20260831004008 83 147 2.0 5.0 0.00 0.00 0.00 57 1018.3
20260831003507 84 205 1.0 3.0 0.00 0.00 0.00 56 1018.3
20260831003017 84 236 1.0 6.0 0.00 0.00 0.00 55 1018.3
20260831002506 84 121 3.0 7.0 0.00 0.00 0.00 54 1018.2
20260831002007 85 176 2.0 7.0 0.00 0.00 0.00 54 1018.2
20260831001520 85 192 1.0 5.0 0.00 0.00 0.00 52 1018.2
20260831001005 85 129 1.0 4.0 0.00 0.00 0.00 51 1018.3
20260831000504 86 209 1.0 5.0 0.00 0.00 0.00 50 1018.3
20260831000013 86 134 1.0 9.0 0.00 0.00 0.00 49 1018.3
20260830235503 87 244 2.0 9.0 0.00 0.00 0.00 48 1018.4
20260830235003 87 188 3.0 9.0 0.00 0.00 0.00 47 1018.4
20260830234510 87 196 4.0 9.0 0.00 0.00 0.00 46 1018.4
20260830234005 88 209 2.0 7.0 0.00 0.00 0.00 45 1018.4
20260830233508 88 124 2.0 6.0 0.00 0.00 0.00 46 1018.3
20260830233012 88 162 2.0 7.0 0.00 0.00 0.00 45 1018.4
20260830232507 89 250 3.0 7.0 0.00 0.00 0.00 45 1018.3
20260830232008 89 153 2.0 7.0 0.00 0.00 0.00 45 1018.3
20260830231515 89 138 3.0 7.0 0.00 0.00 0.00 45 1018.3